Probability
0 0 0 0 0 0 0 0 1 3 6 8 13 19 21 19 14 9 6 6 8 9 9 9 7 7 6 5 4 2 1 1 2 2 1 1 1 2 3 4 4 4 3 3
0 0 0 0 0 0 0 1 3 6 8 10 16 22 22 17 14 10 8 9 9 9 9 8 7 6 6 5 4 4 3 2 2 1 1 2 3 3 3 4 5 4 3 2
0 0 0 0 0 1 1 3 6 10 11 13 20 24 20 15 13 13 12 12 11 9 8 7 5 4 5 6 5 5 5 3 2 0 0 1 3 4 4 4 5 4 2 1
0 0 0 0 1 2 3 5 8 9 11 14 18 19 15 12 12 14 14 13 11 9 7 5 3 3 5 7 7 6 4 3 1 0 0 0 1 2 3 4 4 3 1 0
0 0 0 0 1 2 3 5 7 7 8 10 12 12 12 11 11 13 14 13 11 8 6 4 3 4 7 9 9 7 4 2 2 2 2 2 2 2 2 2 2 1 0 0
0 0 0 1 1 2 2 4 5 5 5 5 7 9 10 11 11 12 12 12 11 9 7 6 5 7 9 9 8 7 5 4 5 5 6 5 5 3 3 2 1 0 0 0
0 0 0 1 2 2 1 3 4 5 4 4 4 6 7 10 11 10 10 13 13 10 9 8 7 8 9 8 7 7 7 6 7 8 8 8 6 4 3 2 1 0 0 0
0 0 0 2 3 2 1 1 2 3 3 2 2 3 5 7 7 5 7 11 11 9 8 8 7 8 9 8 7 7 8 7 6 7 7 7 6 4 3 2 1 0 0 0
0 0 0 1 2 2 1 0 1 1 1 1 1 1 3 3 3 2 3 5 6 6 6 6 6 6 7 6 5 6 6 5 4 5 5 5 4 3 2 2 1 0 0 0
0 0 0 0 1 1 0 0 0 0 0 0 0 0 1 1 1 0 1 2 3 3 3 3 2 3 4 3 3 4 4 3 3 3 2 2 1 1 1 1 0 0 0 0
0 0 0 0 0 0 0 0 0 0 0 0 0 0 0 0 0 0 0 1 1 1 1 1 0 1 2 2 2 4 4 3 3 2 1 0 0 0 0 0 0 0 0 0
0 0 0 1 1 1 0 0 0 0 0 0 0 0 0 0 0 0 0 0 0 0 0 0 0 0 1 1 1 2 2 2 1 1 0 0 0 0 0 0 0 0 0 0
0 0 1 1 1 1 0 0 0 0 0 0 0 0 0 0 0 0 0 0 0 0 0 0 0 0 0 0 0 0 1 1 0 0 0 0 0 0 0 0 0 0 0 0
0 0 1 1 1 0 0 0 0 0 0 0 0 0 0 0 0 0 0 0 0 0 0 0 0 0 0 0 0 0 0 0 0 0 0 0 0 0 0 0 0 0 0 0
0 0 0 0 0 0 0 0 0 0 0 0 0 0 0 0 0 0 0 0 0 0 0 0 0 0 0 0 0 0 0 0 0 0 0 0 0 0 0 0 0 0 0 0
0 0 0 0 0 0 0 0 0 0 0 0 0 0 0 0 0 0 0 0 0 0 0 0 0 0 0 0 0 0 0 0 0 0 0 0 0 0 0 0 0 0 0 0
0 0 0 0 0 0 0 0 0 0 0 0 0 0 0 0 0 0 0 0 0 0 0 0 0 0 0 0 0 0 0 0 0 0 0 0 0 0 0 0 0 0 0 0
0 0 0 0 0 0 0 0 0 0 0 0 0 0 0 0 0 0 0 0 0 0 0 0 0 0 0 0 0 0 0 0 0 0 0 0 0 0 0 0 0 0 0 0
0 0 0 0 0 0 0 0 0 0 0 0 0 0 0 0 0 0 0 0 0 0 0 0 0 0 0 0 0 0 0 0 0 0 0 0 0 0 0 0 0 0 0 0
0 0 0 0 0 0 0 0 0 0 0 0 0 0 0 0 0 0 0 0 0 0 0 0 0 0 0 0 0 0 0 0 0 0 0 0 0 0 0 0 0 0 0 0
0 0 0 0 0 0 0 0 0 0 0 0 0 0 0 0 0 0 0 0 0 0 0 0 0 0 0 0 0 0 0 0 0 0 0 0 0 0 0 0 0 0 0 0
0 0 0 0 0 0 0 0 0 0 0 0 0 0 0 0 0 0 0 0 0 0 0 0 0 0 0 0 0 0 0 0 0 0 0 0 0 0 0 0 0 0 0 0
0 0 0 0 0 0 0 0 0 0 0 0 0 0 0 0 0 0 0 0 0 0 0 0 0 0 0 0 0 0 0 0 0 0 0 0 0 0 0 0 0 0 0 0
0 0 0 0 0 0 0 0 0 0 0 0 0 0 0 0 0 0 0 0 0 0 0 0 0 0 0 0 0 0 0 0 0 0 0 0 0 0 0 0 0 0 0 0
0 0 0 0 0 0 0 0 0 0 0 0 0 0 0 0 0 0 0 0 0 0 0 0 0 0 0 0 0 0 0 0 0 0 0 0 0 0 0 0 0 0 0 0
0 0 0 0 0 0 0 0 0 0 0 0 0 0 0 0 0 0 0 0 0 0 0 0 0 0 0 0 0 0 0 0 0 0 0 0 0 0 0 0 0 0 0 0
0 0 0 0 0 0 0 0 0 0 0 0 0 0 0 0 0 0 0 0 0 0 0 0 0 0 0 0 0 0 0 0 0 0 0 0 0 0 0 0 0 0 0 0
Wind_Speed
3 2 2 1 1 2 2 4 5 4 3 5 6 6 7 7 8 8 6 5 5 5 4 4 5 5 5 4 4 5 6 6 6 6 6 5 5 5 5 6 6 6 5 4
3 4 3 2 2 2 1 1 3 3 1 1 4 5 5 5 7 7 7 6 5 5 5 5 5 6 6 5 5 5 5 5 5 5 5 5 5 5 5 4 5 5 5 4
2 3 4 2 3 2 3 3 2 3 2 3 7 6 4 4 5 6 5 5 6 6 6 6 6 6 6 6 6 6 5 4 5 5 5 5 5 5 5 4 4 4 4 4
2 4 1 5 2 6 9 7 5 4 4 6 8 6 5 4 5 5 5 5 4 4 4 4 4 5 5 6 7 6 5 4 4 5 6 5 5 4 4 4 4 4 4 4
4 2 3 3 4 3 4 4 5 5 5 6 7 7 5 4 4 5 5 5 4 4 4 4 5 6 6 5 5 6 5 5 5 5 6 6 6 5 4 5 5 5 4 4
4 3 3 3 6 3 5 2 3 3 3 3 3 4 0 2 4 5 4 4 5 5 5 5 4 5 7 6 6 5 5 4 4 5 6 6 6 5 5 6 5 6 6 5
4 3 2 4 7 4 3 3 2 1 3 3 2 3 3 4 5 5 5 6 7 7 6 4 4 5 7 6 5 4 5 5 5 5 5 6 6 5 6 6 7 6 7 6
3 3 3 5 5 3 2 1 1 0 2 6 7 6 6 7 7 7 7 7 8 8 7 5 4 5 7 5 4 5 6 7 6 6 6 6 7 7 7 7 7 6 6 6
3 3 1 2 3 1 0 0 1 1 3 7 8 7 8 8 8 8 8 7 7 9 9 7 6 6 7 4 5 8 8 8 8 8 8 7 7 7 7 6 6 5 5 5
3 1 2 3 4 4 2 1 2 3 5 7 8 9 9 8 8 8 8 7 7 9 10 9 7 8 7 6 7 10 10 9 8 9 9 9 7 7 7 6 6 6 5 5
2 1 2 3 4 4 5 4 5 5 5 7 10 10 10 9 8 8 8 7 7 9 10 9 8 9 8 7 9 11 10 9 9 9 9 9 9 8 7 6 5 6 5 4
3 3 2 0 2 3 5 6 6 7 8 7 9 11 11 9 8 8 10 8 9 10 10 9 9 9 8 7 8 10 9 8 7 7 7 7 9 9 14 11 13 13 9 6
4 4 4 4 4 6 7 7 7 8 9 10 9 10 12 11 9 10 10 10 10 10 10 9 10 10 8 7 8 9 9 7 6 6 6 6 6 8 7 8 12 13 12 11
7 7 6 4 5 6 9 9 10 11 10 10 10 11 12 12 11 11 10 9 10 10 10 10 10 9 7 7 9 9 8 9 7 6 6 6 6 6 6 6 5 5 7 10
6 6 7 7 8 8 9 10 12 11 11 11 10 11 12 12 12 10 9 9 10 11 10 10 10 8 7 8 9 8 7 6 6 6 6 6 6 6 6 6 5 4 4 6
9 10 10 10 9 8 9 10 11 11 10 10 11 11 11 11 11 10 9 9 10 10 8 9 8 6 6 8 8 7 7 11 9 7 6 6 6 6 6 5 5 4 4 3
11 9 10 10 9 8 8 9 9 9 10 10 11 11 11 12 12 11 9 9 9 8 7 7 6 5 6 7 7 5 5 7 11 8 6 6 6 6 5 5 4 4 3 4
8 9 9 10 10 10 9 9 9 9 9 10 11 11 11 11 10 9 8 8 9 9 8 7 6 7 7 7 6 5 5 6 6 6 6 6 6 5 5 5 5 5 3 4
9 9 9 8 9 10 10 9 9 9 10 10 11 10 10 9 8 8 8 9 9 7 5 6 9 8 6 6 7 5 6 7 7 6 6 8 7 5 5 5 4 4 4 3
10 10 10 10 10 10 10 10 10 10 9 10 11 11 10 9 8 8 8 7 4 2 3 5 7 6 6 7 9 6 6 7 6 5 5 6 5 5 4 4 4 4 4 3
11 11 12 11 10 9 10 11 11 10 9 10 10 10 9 8 7 7 7 5 3 4 6 7 5 4 5 6 8 5 6 6 5 5 5 5 5 4 4 4 4 4 3 3
10 11 12 12 12 10 10 10 10 11 10 9 9 9 9 8 7 6 5 3 3 6 5 4 3 5 7 7 5 5 5 6 5 5 4 4 4 4 4 4 3 3 3 3
10 10 11 11 12 11 10 9 9 9 9 9 9 9 8 6 5 6 4 1 3 6 5 3 6 9 10 6 5 5 5 5 5 4 4 4 4 4 3 3 3 3 3 2
10 10 10 10 11 11 10 8 7 7 8 7 7 8 8 6 4 3 4 5 7 7 4 5 9 10 9 5 5 5 4 4 4 4 4 3 3 3 3 3 3 3 3 3
10 10 10 11 10 8 8 8 8 8 8 6 6 6 5 5 5 4 4 5 7 6 4 6 9 9 5 4 4 4 4 4 4 3 3 3 3 3 3 3 3 2 2 2
9 8 8 8 7 7 6 6 6 5 6 6 5 5 5 4 5 5 4 4 5 5 4 3 4 5 3 3 4 4 3 3 4 3 3 3 3 3 3 3 3 2 2 3
9 7 7 6 6 5 6 6 6 6 6 7 6 4 5 5 4 4 4 4 3 3 3 2 2 3 3 3 3 3 3 2 3 3 3 3 3 2 2 3 2 2 3 3
Wind_Direction
137 133 109 92 56 78 122 178 181 215 208 229 195 161 151 147 140 140 148 154 151 142 134 144 150 148 154 152 153 153 150 155 162 159 156 158 160 161 161 164 171 172 171 179
33 32 45 26 1 13 60 127 144 120 31 286 113 105 109 133 142 144 158 161 157 147 143 153 159 155 151 150 152 147 149 155 154 153 154 158 159 156 152 153 156 158 162 161
355 354 48 356 329 59 59 23 132 149 196 115 93 87 95 111 125 133 144 144 155 158 164 164 163 156 153 151 137 130 135 138 136 143 146 152 158 154 159 158 144 142 142 139
82 48 187 244 342 82 80 53 48 83 110 112 118 105 84 85 112 119 124 127 134 142 149 155 148 142 138 135 133 131 130 137 135 132 134 129 128 136 146 141 134 127 120 117
109 117 284 316 3 35 88 45 32 85 93 104 116 89 59 48 87 114 120 125 136 137 139 137 139 141 131 133 134 130 132 135 142 141 132 127 128 125 119 113 109 107 105 103
117 136 220 274 322 336 98 74 8 81 115 129 96 94 97 18 74 87 96 104 109 109 101 100 114 126 127 130 127 133 144 147 144 140 134 131 128 116 105 109 112 104 91 85
139 167 229 309 316 6 106 215 305 114 134 123 98 143 141 96 80 76 79 91 96 92 93 93 98 112 119 122 131 142 134 122 113 114 118 119 115 112 111 111 103 95 88 74
136 159 235 337 19 65 211 274 341 51 106 106 111 110 105 93 85 79 73 77 89 90 81 73 78 99 104 115 127 113 104 99 95 94 100 102 103 102 105 107 100 93 88 74
150 175 222 25 81 64 101 217 238 140 125 123 123 121 110 99 93 86 79 76 82 90 81 65 58 78 91 83 90 95 91 87 84 80 74 79 94 98 95 95 97 94 88 80
94 82 36 36 41 27 23 68 112 125 127 122 118 122 113 105 98 92 81 76 80 83 81 68 55 63 74 79 89 93 92 88 85 83 76 68 68 77 87 90 96 94 90 84
110 148 45 25 23 25 41 67 91 100 113 120 116 113 111 106 101 99 91 79 78 82 80 71 64 62 63 72 88 93 91 89 87 84 84 77 69 60 71 66 92 105 101 98
190 186 154 253 9 57 74 75 92 106 102 102 111 112 108 103 97 96 94 90 85 80 78 72 68 64 56 62 81 91 90 86 88 91 91 91 91 74 56 67 71 74 80 87
131 113 108 102 79 79 85 85 90 100 103 101 98 103 103 99 93 91 90 89 86 83 80 74 69 63 54 56 71 83 91 92 92 94 97 99 98 101 91 62 59 62 63 66
113 109 97 90 92 87 91 89 90 91 91 96 100 99 98 95 91 89 88 87 86 82 77 74 70 62 55 63 70 74 79 85 88 90 93 95 96 94 95 94 76 45 40 51
99 107 118 112 101 94 93 96 94 92 92 91 94 97 98 97 93 88 85 85 84 79 73 71 68 55 48 63 71 73 77 81 84 86 88 93 95 92 89 86 82 68 48 39
116 110 114 113 110 106 104 105 105 104 103 100 97 96 97 97 94 88 82 82 84 80 74 71 64 51 52 64 70 69 75 85 88 89 88 89 93 95 93 90 84 74 62 47
132 132 129 126 124 120 117 115 116 115 112 108 107 105 103 99 94 88 83 81 83 80 74 72 65 55 57 62 70 76 78 83 86 84 84 90 94 95 97 96 91 83 68 62
137 139 141 141 138 131 123 118 117 114 113 113 111 107 105 105 103 99 92 85 77 67 55 57 60 59 54 53 65 75 81 82 81 86 86 86 89 91 93 92 89 85 66 60
129 131 131 130 130 128 127 124 120 116 115 112 107 104 103 102 102 99 90 83 79 71 47 50 57 57 52 52 66 76 85 85 81 82 85 88 85 83 86 87 85 82 79 71
128 128 125 123 121 124 126 124 121 117 117 115 111 107 105 103 102 97 89 80 73 88 76 62 56 52 46 56 72 79 84 88 88 85 84 85 88 87 85 86 85 79 72 69
130 131 130 126 122 121 123 124 121 119 118 118 117 118 114 109 105 102 97 85 38 56 67 64 58 48 48 63 73 83 87 89 91 91 90 90 91 89 85 82 83 84 82 75
127 126 125 123 120 117 118 118 119 120 119 119 119 119 115 109 103 92 84 97 87 78 72 61 56 62 68 69 71 81 87 90 91 91 92 92 94 94 87 84 80 80 81 81
121 120 121 122 121 119 115 115 118 120 120 122 124 125 121 120 120 115 103 80 87 83 79 70 74 73 73 68 72 81 88 91 94 98 101 99 99 101 99 92 87 86 85 80
119 118 119 119 118 117 116 119 118 116 116 116 121 124 121 114 99 97 120 117 104 95 85 79 77 77 74 67 69 77 83 89 95 97 99 97 96 97 98 97 94 91 91 87
119 117 117 118 119 122 125 120 112 110 110 109 111 113 118 124 128 132 123 117 112 98 83 78 81 80 74 72 74 77 80 89 99 102 97 99 99 101 103 101 103 104 98 90
115 115 117 119 122 123 118 112 112 117 117 116 113 114 115 115 119 120 117 119 114 106 97 88 90 85 81 81 84 83 79 81 84 93 105 106 105 104 106 107 105 107 108 103
105 105 106 104 105 111 114 116 120 124 126 126 123 122 124 124 122 122 120 116 111 104 100 97 98 96 92 91 89 88 87 90 95 97 101 106 112 113 116 119 120 116 116 113